Voltar ao catálogo

CZ-6A DEB

AtivoSSO
NORAD 55536·DEBRIS·🇨🇳 China

Lançado Nov 11, 2022 de Taiyuan Satellite Launch Center

Loading…

Próximas Passagens (próximas 24 horas)

TLE

AtualizadoSource: Space-Track

Época: Sep 13, 2026, 23:46 UTC

1 55536U 22151YJ  26256.99043178  .00003270  00000-0  13521-2 0  9993
2 55536  98.7992 269.2861 0045123  55.6410 304.9026 14.26817262193107

Acompanhe CZ-6A DEB em tempo real com AllMySat

Download on the App Store